,,PA_Meas_PMT16A,,PR_Meas_QMR101_102,,RH_Meas_QMH101,,SR_Meas_QMS101,,TA_Meas_QMH101,,GenWind,,GenWind,
time,status,PA,status,PR,status,RH,status,SR,status,TA,status,DirAvg,status,SpdAvg,
2011-02-08, 00:00:04,VALID,916.105,VALID,0,VALID,94.0043,VALID,0,VALID,17.9092,VALID,143,VALID,0.847266,
2011-02-08, 00:01:04,VALID,916.071,VALID,0,VALID,94.1568,VALID,0,VALID,17.9092,VALID,143,VALID,0.424219,
2011-02-08, 00:02:04,VALID,916.055,VALID,0,VALID,94.1721,VALID,0,VALID,17.8716,VALID,143,VALID,0.466016,
2011-02-08, 00:03:04,VALID,916.039,VALID,0,VALID,94.0653,VALID,0,VALID,17.8326,VALID,143,VALID,0.589063,
2011-02-08, 00:04:04,VALID,916.041,VALID,0,VALID,94.2559,VALID,0,VALID,17.7936,VALID,143,VALID,0.80625,
2011-02-08, 00:05:04,VALID,916.022,VALID,0,VALID,94.3779,VALID,0,VALID,17.7755,VALID,143,VALID,0.844141,
2011-02-08, 00:06:04,VALID,916.015,VALID,0,VALID,94.3093,VALID,0,VALID,17.7352,VALID,143,VALID,0.893359,
2011-02-08, 00:07:04,VALID,915.995,VALID,0,VALID,94.3626,VALID,0,VALID,17.756,VALID,143,VALID,0.751172,
2011-02-08, 00:08:04,VALID,915.969,VALID,0,VALID,94.2788,VALID,0,VALID,17.7755,VALID,143,VALID,1.02188,
2011-02-08, 00:09:04,VALID,915.969,VALID,0,VALID,93.9891,VALID,0,VALID,17.7741,VALID,143,VALID,0.714063,
2011-02-08, 00:10:04,VALID,915.938,VALID,0,VALID,93.768,VALID,0,VALID,17.7741,VALID,143,VALID,0.4875,
2011-02-08, 00:11:04,VALID,915.933,VALID,0,VALID,93.5241,VALID,0,VALID,17.7936,VALID,143,VALID,0.812109,
2011-02-08, 00:12:04,VALID,915.92,VALID,0,VALID,93.4402,VALID,0,VALID,17.8326,VALID,143,VALID,1.06016,
2011-02-08, 00:13:04,VALID,915.911,VALID,0,VALID,93.2725,VALID,0,VALID,17.8521,VALID,143,VALID,0.994141,
2011-02-08, 00:14:04,VALID,915.916,VALID,0,VALID,93.0819,VALID,0,VALID,17.8925,VALID,143,VALID,0.559375,
2011-02-08, 00:15:04,VALID,915.874,VALID,0,VALID,92.9828,VALID,0,VALID,17.8911,VALID,143,VALID,0.600781,
2011-02-08, 00:16:04,VALID,915.867,VALID,0,VALID,92.8989,VALID,0,VALID,17.8911,VALID,143,VALID,0.814062,
2011-02-08, 00:17:04,VALID,915.858,VALID,0,VALID,92.7846,VALID,0,VALID,17.8897,VALID,149,VALID,0.443359,
2011-02-08, 00:18:04,VALID,915.849,VALID,0,VALID,92.9294,VALID,0,VALID,17.8897,VALID,149,VALID,0.648828,
2011-02-08, 00:19:04,VALID,915.818,VALID,0,VALID,92.9523,VALID,0,VALID,17.8702,VALID,149,VALID,0.609766,
2011-02-08, 00:20:04,VALID,915.816,VALID,0,VALID,92.8989,VALID,0,VALID,17.8508,VALID,149,VALID,0.237891,
2011-02-08, 00:21:04,VALID,915.786,VALID,0,VALID,92.8989,VALID,0,VALID,17.8716,VALID,149,VALID,0.312891,
2011-02-08, 00:22:04,VALID,915.774,VALID,0,VALID,92.9371,VALID,0,VALID,17.8521,VALID,149,VALID,0.883594,
2011-02-08, 00:23:04,VALID,915.772,VALID,0,VALID,92.9371,VALID,0,VALID,17.8521,VALID,149,VALID,0.442969,
2011-02-08, 00:24:04,VALID,915.777,VALID,0,VALID,92.8761,VALID,0,VALID,17.8118,VALID,149,VALID,0.406641,
2011-02-08, 00:25:04,VALID,915.747,VALID,0,VALID,92.8608,VALID,0,VALID,17.8118,VALID,149,VALID,0.818359,
2011-02-08, 00:26:04,VALID,915.766,VALID,0,VALID,92.8227,VALID,0,VALID,17.7923,VALID,149,VALID,0.645703,
2011-02-08, 00:27:04,VALID,915.775,VALID,0,VALID,92.6779,VALID,0,VALID,17.7728,VALID,149,VALID,0.999219,
2011-02-08, 00:28:04,VALID,915.728,VALID,0,VALID,92.7846,VALID,0,VALID,17.7352,VALID,149,VALID,0.762891,
2011-02-08, 00:29:04,VALID,915.751,VALID,0,VALID,93.242,VALID,0,VALID,17.7143,VALID,149,VALID,1.04141,
2011-02-08, 00:30:04,VALID,915.745,VALID,0,VALID,93.4555,VALID,0,VALID,17.7338,VALID,149,VALID,1.05,
2011-02-08, 00:31:04,VALID,915.75,VALID,0,VALID,93.4402,VALID,0,VALID,17.7728,VALID,149,VALID,1.25898,
2011-02-08, 00:32:04,VALID,915.781,VALID,0,VALID,93.4555,VALID,0,VALID,17.8118,VALID,149,VALID,1.30625,
2011-02-08, 00:33:04,VALID,915.786,VALID,0,VALID,93.2039,VALID,0,VALID,17.8508,VALID,149,VALID,0.855078,
2011-02-08, 00:34:04,VALID,915.795,VALID,0,VALID,93.0972,VALID,0,VALID,17.8702,VALID,149,VALID,0.864062,
2011-02-08, 00:35:04,VALID,915.756,VALID,0,VALID,92.9523,VALID,0.107441,VALID,17.9092,VALID,160,VALID,0.676172,
2011-02-08, 00:36:04,VALID,915.773,VALID,0,VALID,92.8532,VALID,0,VALID,17.9482,VALID,150,VALID,1.01797,
2011-02-08, 00:37:04,VALID,915.728,VALID,0,VALID,92.6702,VALID,0,VALID,17.9872,VALID,150,VALID,0.512891,
2011-02-08, 00:38:04,VALID,915.749,VALID,0,VALID,92.4339,VALID,0,VALID,17.9872,VALID,150,VALID,0.533594,
2011-02-08, 00:39:04,VALID,915.729,VALID,0,VALID,92.1214,VALID,0,VALID,18.047,VALID,150,VALID,0.483203,
2011-02-08, 00:40:04,VALID,915.715,VALID,0,VALID,91.9384,VALID,0,VALID,18.0457,VALID,150,VALID,0.402734,
2011-02-08, 00:41:04,VALID,915.696,VALID,0,VALID,91.8927,VALID,0,VALID,18.0679,VALID,150,VALID,0.457812,
2011-02-08, 00:42:04,VALID,915.698,VALID,0,VALID,92.1976,VALID,0,VALID,18.0457,VALID,150,VALID,0.900781,
2011-02-08, 00:43:04,VALID,915.693,VALID,0,VALID,92.1976,VALID,0,VALID,17.9872,VALID,150,VALID,1.15664,
2011-02-08, 00:44:04,VALID,915.698,VALID,0,VALID,92.5406,VALID,0,VALID,17.9092,VALID,150,VALID,0.747266,
2011-02-08, 00:45:04,VALID,915.674,VALID,0,VALID,92.9981,VALID,0,VALID,17.8313,VALID,150,VALID,0.786328,
2011-02-08, 00:46:04,VALID,915.618,VALID,0,VALID,93.4097,VALID,0,VALID,17.7338,VALID,150,VALID,0.798828,
2011-02-08, 00:47:04,VALID,915.605,VALID,0,VALID,93.7604,VALID,0,VALID,17.6364,VALID,150,VALID,0.573828,
2011-02-08, 00:48:04,VALID,915.599,VALID,0,VALID,94.1111,VALID,0,VALID,17.5987,VALID,150,VALID,0.321484,
2011-02-08, 00:49:04,VALID,915.564,VALID,0,VALID,94.1949,VALID,0,VALID,17.5598,VALID,150,VALID,0.578906,
2011-02-08, 00:50:04,VALID,915.576,VALID,0,VALID,94.1263,VALID,0,VALID,17.461,VALID,150,VALID,0.0628906,
2011-02-08, 00:51:04,VALID,915.548,VALID,0,VALID,94.3321,VALID,0,VALID,17.422,VALID,150,VALID,0.667188,
2011-02-08, 00:52:04,VALID,915.551,VALID,0,VALID,94.3855,VALID,0,VALID,17.4025,VALID,150,VALID,0.273047,
2011-02-08, 00:53:04,VALID,915.545,VALID,0,VALID,94.3245,VALID,0,VALID,17.3441,VALID,150,VALID,0.136328,
2011-02-08, 00:54:04,VALID,915.56,VALID,0,VALID,94.1721,VALID,0,VALID,17.3051,VALID,150,VALID,0.411719,
2011-02-08, 00:55:04,VALID,915.542,VALID,0,VALID,94.2788,VALID,0,VALID,17.2661,VALID,150,VALID,0,
2011-02-08, 00:56:04,VALID,915.524,VALID,0,VALID,94.4999,VALID,0,VALID,17.3064,VALID,150,VALID,0.742188,
2011-02-08, 00:57:04,VALID,915.52,VALID,0,VALID,94.6295,VALID,0,VALID,17.2661,VALID,150,VALID,0.293359,
2011-02-08, 00:58:04,VALID,915.509,VALID,0,VALID,94.5685,VALID,0,VALID,17.2271,VALID,150,VALID,0.604297,
2011-02-08, 00:59:04,VALID,915.452,VALID,0,VALID,94.6295,VALID,0,VALID,17.2271,VALID,150,VALID,0.773828,
2011-02-08, 01:00:04,VALID,915.401,VALID,0,VALID,94.4465,VALID,0,VALID,17.1687,VALID,150,VALID,0.464844,
2011-02-08, 01:01:04,VALID,915.387,VALID,0,VALID,94.5685,VALID,0,VALID,17.1492,VALID,150,VALID,0.843359,
2011-02-08, 01:02:04,VALID,915.35,VALID,0,VALID,94.4541,VALID,0,VALID,17.1297,VALID,145,VALID,1.08398,
2011-02-08, 01:03:04,VALID,915.334,VALID,0,VALID,94.0425,VALID,0,VALID,17.1492,VALID,137,VALID,1.45039,
2011-02-08, 01:04:04,VALID,915.303,VALID,0,VALID,93.5622,VALID,0,VALID,17.2077,VALID,137,VALID,1.2418,
2011-02-08, 01:05:04,VALID,915.296,VALID,0,VALID,93.2344,VALID,0,VALID,17.2466,VALID,136,VALID,1.18906,
2011-02-08, 01:06:04,VALID,915.266,VALID,0,VALID,93.0514,VALID,0,VALID,17.2856,VALID,136,VALID,0.628516,
2011-02-08, 01:07:04,VALID,915.219,VALID,0,VALID,92.9218,VALID,0,VALID,17.3259,VALID,147,VALID,1.16094,
2011-02-08, 01:08:04,VALID,915.217,VALID,0,VALID,92.7617,VALID,0,VALID,17.3454,VALID,148,VALID,1.16523,
2011-02-08, 01:09:04,VALID,915.191,VALID,0,VALID,92.5406,VALID,0,VALID,17.3441,VALID,148,VALID,1.03711,
2011-02-08, 01:10:04,VALID,915.173,VALID,0,VALID,92.3729,VALID,0,VALID,17.3635,VALID,141,VALID,1.275,
2011-02-08, 01:11:04,VALID,915.197,VALID,0,VALID,92.0527,VALID,0,VALID,17.3441,VALID,137,VALID,1.14531,
2011-02-08, 01:12:04,VALID,915.191,VALID,0,VALID,92.0146,VALID,0,VALID,17.3051,VALID,118,VALID,0.821094,
2011-02-08, 01:13:04,VALID,915.161,VALID,0,VALID,92.0604,VALID,0,VALID,17.2661,VALID,126,VALID,0.850781,
2011-02-08, 01:14:04,VALID,915.125,VALID,0,VALID,92.4187,VALID,0,VALID,17.2271,VALID,134,VALID,1.16094,
2011-02-08, 01:15:04,VALID,915.111,VALID,0,VALID,92.6474,VALID,0,VALID,17.1895,VALID,137,VALID,0.768359,
2011-02-08, 01:16:04,VALID,915.089,VALID,0,VALID,93.3182,VALID,0,VALID,17.1687,VALID,137,VALID,0.826563,
2011-02-08, 01:17:04,VALID,915.053,VALID,0,VALID,93.6232,VALID,0,VALID,17.1297,VALID,137,VALID,1.19414,
2011-02-08, 01:18:04,VALID,915.049,VALID,0,VALID,93.7985,VALID,0,VALID,17.1336,VALID,137,VALID,0.993359,
2011-02-08, 01:19:04,VALID,915.013,VALID,0,VALID,93.9357,VALID,0,VALID,17.0518,VALID,137,VALID,0.887891,
2011-02-08, 01:20:04,VALID,914.994,VALID,0,VALID,93.7451,VALID,0,VALID,17.092,VALID,138,VALID,1.28789,
2011-02-08, 01:21:04,VALID,914.984,VALID,0,VALID,93.3259,VALID,0,VALID,17.092,VALID,132,VALID,1.23242,
2011-02-08, 01:22:04,VALID,914.914,VALID,0,VALID,92.9218,VALID,0,VALID,17.0907,VALID,152,VALID,0.335156,
2011-02-08, 01:23:04,VALID,914.921,VALID,0,VALID,92.7236,VALID,0,VALID,17.1505,VALID,152,VALID,0.929688,
2011-02-08, 01:24:04,VALID,914.868,VALID,0,VALID,92.4873,VALID,0,VALID,17.17,VALID,152,VALID,0.55,
2011-02-08, 01:25:04,VALID,914.84,VALID,0,VALID,92.3577,VALID,0,VALID,17.1297,VALID,152,VALID,0.800781,
2011-02-08, 01:26:04,VALID,914.876,VALID,0,VALID,92.3043,VALID,0,VALID,17.1492,VALID,152,VALID,0.791406,
2011-02-08, 01:27:04,VALID,914.878,VALID,0,VALID,92.2891,VALID,0,VALID,17.1492,VALID,152,VALID,0.828516,
2011-02-08, 01:28:04,VALID,914.869,VALID,0,VALID,92.1747,VALID,0,VALID,17.17,VALID,152,VALID,0.604688,
2011-02-08, 01:29:04,VALID,914.905,VALID,0,VALID,92.0756,VALID,0,VALID,17.1687,VALID,152,VALID,0.792969,
2011-02-08, 01:30:04,VALID,914.884,VALID,0,VALID,91.9765,VALID,0,VALID,17.1687,VALID,152,VALID,0.635938,
2011-02-08, 01:31:04,VALID,914.908,VALID,0,VALID,91.8927,VALID,0,VALID,17.17,VALID,152,VALID,0.126953,
2011-02-08, 01:32:04,VALID,914.871,VALID,0,VALID,91.9384,VALID,0,VALID,17.1492,VALID,152,VALID,0.30625,
2011-02-08, 01:33:04,VALID,914.891,VALID,0,VALID,92.1671,VALID,0,VALID,17.1505,VALID,152,VALID,0.637891,
2011-02-08, 01:34:04,VALID,914.856,VALID,0,VALID,92.2205,VALID,0.107441,VALID,17.1102,VALID,152,VALID,0.0375,
2011-02-08, 01:35:04,VALID,914.879,VALID,0,VALID,92.2128,VALID,0,VALID,17.0726,VALID,152,VALID,0.610937,
2011-02-08, 01:36:04,VALID,914.864,VALID,0,VALID,92.3653,VALID,0,VALID,17.0128,VALID,152,VALID,0.916406,
2011-02-08, 01:37:04,VALID,914.845,VALID,0,VALID,92.6855,VALID,0,VALID,16.9362,VALID,152,VALID,0.868359,
2011-02-08, 01:38:04,VALID,914.857,VALID,0,VALID,92.9142,VALID,0,VALID,16.8777,VALID,152,VALID,1.0957,
2011-02-08, 01:39:04,VALID,914.875,VALID,0,VALID,92.8532,VALID,0,VALID,16.8595,VALID,152,VALID,0.973437,
2011-02-08, 01:40:04,VALID,914.847,VALID,0,VALID,92.8837,VALID,0,VALID,16.8608,VALID,152,VALID,0.914844,
2011-02-08, 01:41:04,VALID,914.852,VALID,0,VALID,92.6931,VALID,0,VALID,16.7803,VALID,152,VALID,0.994531,
2011-02-08, 01:42:04,VALID,914.844,VALID,0,VALID,92.3729,VALID,0,VALID,16.7205,VALID,152,VALID,0.966016,
2011-02-08, 01:43:04,VALID,914.81,VALID,0,VALID,92.2662,VALID,0,VALID,16.7011,VALID,152,VALID,1.05273,
2011-02-08, 01:44:04,VALID,914.805,VALID,0,VALID,91.9994,VALID,0,VALID,16.7205,VALID,152,VALID,1.07578,
2011-02-08, 01:45:04,VALID,914.768,VALID,0,VALID,91.664,VALID,0,VALID,16.7023,VALID,152,VALID,1.20391,
2011-02-08, 01:46:04,VALID,914.748,VALID,0,VALID,91.3514,VALID,0,VALID,16.7205,VALID,152,VALID,1.1082,
2011-02-08, 01:47:04,VALID,914.766,VALID,0,VALID,90.9778,VALID,0,VALID,16.7608,VALID,152,VALID,1.22266,
2011-02-08, 01:48:04,VALID,914.758,VALID,0,VALID,90.7873,VALID,0,VALID,16.7413,VALID,152,VALID,0.952734,
2011-02-08, 01:49:04,VALID,914.76,VALID,0,VALID,90.5281,VALID,0,VALID,16.7023,VALID,152,VALID,1.3207,
2011-02-08, 01:50:04,VALID,914.755,VALID,0,VALID,90.5433,VALID,0,VALID,16.6828,VALID,152,VALID,1.45586,
2011-02-08, 01:51:04,VALID,914.733,VALID,0,VALID,90.4061,VALID,0,VALID,16.6828,VALID,152,VALID,0.920703,
2011-02-08, 01:52:04,VALID,914.751,VALID,0,VALID,90.4366,VALID,0,VALID,16.6634,VALID,152,VALID,1.01406,
2011-02-08, 01:53:04,VALID,914.732,VALID,0,VALID,89.8953,VALID,0,VALID,16.6634,VALID,152,VALID,1.18906,
2011-02-08, 01:54:04,VALID,914.697,VALID,0,VALID,89.8496,VALID,0,VALID,16.7218,VALID,152,VALID,1.04141,
2011-02-08, 01:55:04,VALID,914.727,VALID,0,VALID,89.537,VALID,0,VALID,16.7413,VALID,152,VALID,1.25781,
2011-02-08, 01:56:04,VALID,914.698,VALID,0,VALID,89.5446,VALID,0,VALID,16.7998,VALID,152,VALID,1.05273,
2011-02-08, 01:57:04,VALID,914.676,VALID,0,VALID,89.5828,VALID,0,VALID,16.7998,VALID,152,VALID,1.02461,
2011-02-08, 01:58:04,VALID,914.677,VALID,0,VALID,89.598,VALID,0,VALID,16.7803,VALID,152,VALID,1.23477,
2011-02-08, 01:59:04,VALID,914.641,VALID,0,VALID,89.8725,VALID,0,VALID,16.7998,VALID,152,VALID,1.05078,
2011-02-08, 02:00:04,VALID,914.643,VALID,0,VALID,90.2155,VALID,0,VALID,16.7998,VALID,152,VALID,1.14766,
2011-02-08, 02:01:04,VALID,914.658,VALID,0,VALID,90.711,VALID,0,VALID,16.7595,VALID,152,VALID,1.28477,
2011-02-08, 02:02:04,VALID,914.65,VALID,0,VALID,90.3985,VALID,0,VALID,16.7413,VALID,152,VALID,1.38086,
2011-02-08, 02:03:04,VALID,914.633,VALID,0,VALID,90.5586,VALID,0,VALID,16.7011,VALID,152,VALID,1.26406,
2011-02-08, 02:04:04,VALID,914.634,VALID,0,VALID,90.3146,VALID,0,VALID,16.7426,VALID,151,VALID,1.28398,
2011-02-08, 02:05:04,VALID,914.609,VALID,0,VALID,89.781,VALID,0,VALID,16.8192,VALID,119,VALID,1.50039,
2011-02-08, 02:06:04,VALID,914.563,VALID,0,VALID,89.3998,VALID,0,VALID,16.8582,VALID,148,VALID,1.24375,
2011-02-08, 02:07:04,VALID,914.525,VALID,0,VALID,89.1025,VALID,0,VALID,16.8582,VALID,127,VALID,1.61367,
2011-02-08, 02:08:04,VALID,914.483,VALID,0,VALID,88.9119,VALID,0,VALID,16.8972,VALID,132,VALID,1.19258,
2011-02-08, 02:09:04,VALID,914.507,VALID,0,VALID,88.8814,VALID,0,VALID,16.9362,VALID,140,VALID,1.56094,
2011-02-08, 02:10:04,VALID,914.48,VALID,0,VALID,88.8128,VALID,0,VALID,16.9362,VALID,144,VALID,1.26484,
2011-02-08, 02:11:04,VALID,914.502,VALID,0,VALID,88.7823,VALID,0,VALID,16.9167,VALID,145,VALID,0.841016,
2011-02-08, 02:12:04,VALID,914.463,VALID,0,VALID,88.8585,VALID,0,VALID,16.8777,VALID,144,VALID,0.997266,
2011-02-08, 02:13:04,VALID,914.469,VALID,0,VALID,89.0644,VALID,0,VALID,16.8192,VALID,97,VALID,1.24414,
2011-02-08, 02:14:04,VALID,914.486,VALID,0,VALID,89.3464,VALID,0,VALID,16.8205,VALID,116,VALID,1.41211,
2011-02-08, 02:15:04,VALID,914.495,VALID,0,VALID,89.0415,VALID,0,VALID,16.8777,VALID,119,VALID,1.49922,
2011-02-08, 02:16:04,VALID,914.522,VALID,0,VALID,88.4697,VALID,0,VALID,16.9946,VALID,124,VALID,1.89414,
2011-02-08, 02:17:04,VALID,914.488,VALID,0,VALID,88.2868,VALID,0,VALID,17.0336,VALID,124,VALID,1.575,
2011-02-08, 02:18:04,VALID,914.425,VALID,0,VALID,88.3859,VALID,0,VALID,17.1128,VALID,124,VALID,1.23008,
2011-02-08, 02:19:04,VALID,914.417,VALID,0,VALID,88.4926,VALID,0,VALID,17.092,VALID,124,VALID,1.28867,
2011-02-08, 02:20:04,VALID,914.418,VALID,0,VALID,88.5002,VALID,0,VALID,17.1115,VALID,124,VALID,1.18828,
2011-02-08, 02:21:04,VALID,914.398,VALID,0,VALID,88.5841,VALID,0,VALID,17.1518,VALID,124,VALID,1.23242,
2011-02-08, 02:22:04,VALID,914.402,VALID,0,VALID,88.5307,VALID,0,VALID,17.1505,VALID,124,VALID,0.935547,
2011-02-08, 02:23:04,VALID,914.399,VALID,0,VALID,88.4774,VALID,0,VALID,17.131,VALID,124,VALID,1.19844,
2011-02-08, 02:24:04,VALID,914.428,VALID,0,VALID,88.4697,VALID,0,VALID,17.131,VALID,124,VALID,0.820703,
2011-02-08, 02:25:04,VALID,914.393,VALID,0,VALID,88.485,VALID,0,VALID,17.17,VALID,124,VALID,0.925,
2011-02-08, 02:26:04,VALID,914.387,VALID,0,VALID,88.5079,VALID,0,VALID,17.17,VALID,124,VALID,0.852344,
2011-02-08, 02:27:04,VALID,914.365,VALID,0,VALID,88.6451,VALID,0,VALID,17.1687,VALID,124,VALID,1.09687,
2011-02-08, 02:28:04,VALID,914.357,VALID,0,VALID,88.5155,VALID,0,VALID,17.1895,VALID,124,VALID,0.876562,
2011-02-08, 02:29:04,VALID,914.349,VALID,0,VALID,88.5231,VALID,0,VALID,17.1895,VALID,124,VALID,0.661328,
2011-02-08, 02:30:04,VALID,914.365,VALID,0,VALID,88.668,VALID,0,VALID,17.17,VALID,124,VALID,0.770312,
2011-02-08, 02:31:04,VALID,914.321,VALID,0,VALID,88.889,VALID,0,VALID,17.1505,VALID,124,VALID,0.833594,
2011-02-08, 02:32:04,VALID,914.319,VALID,0,VALID,89.0415,VALID,0,VALID,17.1505,VALID,124,VALID,0.704297,
2011-02-08, 02:33:04,VALID,914.31,VALID,0,VALID,88.6832,VALID,0,VALID,17.1908,VALID,124,VALID,0.842969,
2011-02-08, 02:34:04,VALID,914.297,VALID,0,VALID,88.2868,VALID,0,VALID,17.17,VALID,124,VALID,0.79375,
2011-02-08, 02:35:04,VALID,914.3,VALID,0,VALID,87.9361,VALID,0,VALID,17.17,VALID,124,VALID,1.11914,
2011-02-08, 02:36:04,VALID,914.31,VALID,0,VALID,87.8065,VALID,0,VALID,17.1505,VALID,124,VALID,1.20352,
2011-02-08, 02:37:04,VALID,914.297,VALID,0,VALID,87.8218,VALID,0,VALID,17.131,VALID,124,VALID,0.828906,
2011-02-08, 02:38:04,VALID,914.269,VALID,0,VALID,87.9285,VALID,0,VALID,17.1323,VALID,124,VALID,0.994531,
2011-02-08, 02:39:04,VALID,914.242,VALID,0,VALID,88.0962,VALID,0,VALID,17.0726,VALID,126,VALID,1.1125,
2011-02-08, 02:40:04,VALID,914.248,VALID,0,VALID,88.1038,VALID,0,VALID,17.0726,VALID,125,VALID,1.17734,
2011-02-08, 02:41:04,VALID,914.219,VALID,0,VALID,88.0886,VALID,0,VALID,17.0531,VALID,125,VALID,1.07773,
2011-02-08, 02:42:04,VALID,914.169,VALID,0,VALID,87.9437,VALID,0,VALID,17.0336,VALID,125,VALID,1.2125,
2011-02-08, 02:43:04,VALID,914.147,VALID,0,VALID,87.9361,VALID,0,VALID,17.0336,VALID,125,VALID,1.04961,
2011-02-08, 02:44:04,VALID,914.123,VALID,0,VALID,87.7989,VALID,0,VALID,17.0141,VALID,125,VALID,1.28594,
2011-02-08, 02:45:04,VALID,914.112,VALID,0,VALID,88.1877,VALID,0,VALID,17.0141,VALID,125,VALID,1.18281,
2011-02-08, 02:46:04,VALID,914.086,VALID,0,VALID,88.2105,VALID,0,VALID,17.0141,VALID,125,VALID,1.19258,
2011-02-08, 02:47:04,VALID,914.134,VALID,0,VALID,88.3401,VALID,0,VALID,16.9751,VALID,124,VALID,1.29297,
2011-02-08, 02:48:04,VALID,914.108,VALID,0,VALID,88.1038,VALID,0,VALID,16.9167,VALID,123,VALID,1.16328,
2011-02-08, 02:49:04,VALID,914.128,VALID,0,VALID,87.5549,VALID,0,VALID,16.9556,VALID,119,VALID,1.22266,
2011-02-08, 02:50:04,VALID,914.105,VALID,0,VALID,87.2347,VALID,0,VALID,16.9946,VALID,152,VALID,1.16523,
2011-02-08, 02:51:04,VALID,914.105,VALID,0,VALID,87.1814,VALID,0,VALID,17.0141,VALID,152,VALID,0.605078,
2011-02-08, 02:52:04,VALID,914.119,VALID,0,VALID,87.5016,VALID,0,VALID,16.9556,VALID,124,VALID,1.01406,
2011-02-08, 02:53:04,VALID,914.133,VALID,0,VALID,87.8904,VALID,0,VALID,16.9167,VALID,124,VALID,1.2793,
2011-02-08, 02:54:04,VALID,914.13,VALID,0,VALID,88.0886,VALID,0,VALID,16.9167,VALID,124,VALID,1.11445,
2011-02-08, 02:55:04,VALID,914.156,VALID,0,VALID,88.1724,VALID,0,VALID,16.9167,VALID,124,VALID,1.07539,
2011-02-08, 02:56:04,VALID,914.146,VALID,0,VALID,88.302,VALID,0,VALID,16.9167,VALID,124,VALID,1.03594,
2011-02-08, 02:57:04,VALID,914.131,VALID,0,VALID,88.3097,VALID,0,VALID,16.9349,VALID,124,VALID,1.07813,
2011-02-08, 02:58:04,VALID,914.155,VALID,0,VALID,88.4088,VALID,0,VALID,16.9946,VALID,147,VALID,0.872656,
2011-02-08, 02:59:04,VALID,914.133,VALID,0,VALID,88.4545,VALID,0,VALID,17.0531,VALID,124,VALID,1.27695,
2011-02-08, 03:00:04,VALID,914.168,VALID,0,VALID,88.3401,VALID,0,VALID,17.0141,VALID,123,VALID,1.13086,
2011-02-08, 03:01:04,VALID,914.154,VALID,0,VALID,88.6375,VALID,0,VALID,16.9946,VALID,123,VALID,1.1207,
2011-02-08, 03:02:04,VALID,914.135,VALID,0,VALID,88.8967,VALID,0,VALID,17.0141,VALID,123,VALID,1.45508,
2011-02-08, 03:03:04,VALID,914.134,VALID,0,VALID,88.889,VALID,0,VALID,17.0531,VALID,123,VALID,1.39336,
2011-02-08, 03:04:04,VALID,914.166,VALID,0,VALID,88.9043,VALID,0,VALID,17.092,VALID,123,VALID,1.2293,
2011-02-08, 03:05:04,VALID,914.137,VALID,0,VALID,89.0567,VALID,0,VALID,17.092,VALID,123,VALID,0.983984,
2011-02-08, 03:06:04,VALID,914.146,VALID,0,VALID,89.2245,VALID,0,VALID,17.1115,VALID,123,VALID,1.10781,
2011-02-08, 03:07:04,VALID,914.117,VALID,0,VALID,89.0872,VALID,0,VALID,17.1323,VALID,124,VALID,0.760547,
2011-02-08, 03:08:04,VALID,914.097,VALID,0,VALID,89.476,VALID,0,VALID,17.092,VALID,124,VALID,1.06641,
2011-02-08, 03:09:04,VALID,914.073,VALID,0,VALID,89.8038,VALID,0,VALID,17.1128,VALID,134,VALID,1.1168,
2011-02-08, 03:10:04,VALID,914.074,VALID,0,VALID,89.9487,VALID,0,VALID,17.1128,VALID,135,VALID,0.949219,
2011-02-08, 03:11:04,VALID,914.067,VALID,0,VALID,89.9944,VALID,0,VALID,17.1518,VALID,150,VALID,1.26406,
2011-02-08, 03:12:04,VALID,914.079,VALID,0,VALID,89.6742,VALID,0,VALID,17.17,VALID,152,VALID,0.986328,
2011-02-08, 03:13:04,VALID,914.061,VALID,0,VALID,89.3464,VALID,0,VALID,17.209,VALID,152,VALID,0.772656,
2011-02-08, 03:14:04,VALID,914.065,VALID,0,VALID,89.0339,VALID,0,VALID,17.2285,VALID,152,VALID,0.936328,
2011-02-08, 03:15:04,VALID,914.048,VALID,0,VALID,88.8509,VALID,0,VALID,17.2687,VALID,152,VALID,0.630469,
2011-02-08, 03:16:04,VALID,914.01,VALID,0,VALID,88.8433,VALID,0,VALID,17.2479,VALID,152,VALID,0.985547,
2011-02-08, 03:17:04,VALID,914.045,VALID,0,VALID,88.8204,VALID,0,VALID,17.2479,VALID,151,VALID,0.826172,
2011-02-08, 03:18:04,VALID,914.001,VALID,0,VALID,88.3783,VALID,0,VALID,17.2285,VALID,151,VALID,0.988281,
2011-02-08, 03:19:05,VALID,914.008,VALID,0,VALID,88.2258,VALID,0,VALID,17.209,VALID,145,VALID,0.988672,
2011-02-08, 03:20:05,VALID,913.978,VALID,0,VALID,88.1343,VALID,0,VALID,17.1297,VALID,145,VALID,0.766016,
2011-02-08, 03:21:05,VALID,913.953,VALID,0,VALID,87.7455,VALID,0,VALID,17.1115,VALID,152,VALID,0.98125,
2011-02-08, 03:22:05,VALID,913.968,VALID,0,VALID,87.7379,VALID,0,VALID,17.092,VALID,152,VALID,0.795313,
2011-02-08, 03:23:05,VALID,913.974,VALID,0,VALID,87.654,VALID,0,VALID,17.0544,VALID,151,VALID,1.15625,
2011-02-08, 03:24:05,VALID,913.981,VALID,0,VALID,88.0962,VALID,0,VALID,17.0141,VALID,143,VALID,1.06953,
2011-02-08, 03:25:05,VALID,913.942,VALID,0,VALID,88.0581,VALID,0,VALID,17.0141,VALID,143,VALID,1.02031,
2011-02-08, 03:26:05,VALID,913.959,VALID,0,VALID,88.1801,VALID,0,VALID,16.9946,VALID,143,VALID,0.701563,
2011-02-08, 03:27:05,VALID,913.957,VALID,0,VALID,88.2258,VALID,0,VALID,16.9543,VALID,143,VALID,0.849609,
2011-02-08, 03:28:05,VALID,913.961,VALID,0,VALID,88.3706,VALID,0,VALID,16.9946,VALID,143,VALID,0.970312,
2011-02-08, 03:29:05,VALID,913.906,VALID,0,VALID,88.7823,VALID,0,VALID,16.9959,VALID,141,VALID,1.36328,
2011-02-08, 03:30:05,VALID,913.896,VALID,0,VALID,88.8967,VALID,0,VALID,16.9946,VALID,134,VALID,1.29648,
2011-02-08, 03:31:05,VALID,913.878,VALID,0,VALID,89.0491,VALID,0,VALID,17.0128,VALID,134,VALID,1.61367,
2011-02-08, 03:32:05,VALID,913.874,VALID,0,VALID,88.7594,VALID,0,VALID,17.092,VALID,134,VALID,1.31133,
2011-02-08, 03:33:05,VALID,913.887,VALID,0,VALID,88.5231,VALID,0,VALID,17.1115,VALID,116,VALID,1.54062,
2011-02-08, 03:34:05,VALID,913.882,VALID,0,VALID,88.2639,VALID,0,VALID,17.131,VALID,129,VALID,1.55859,
2011-02-08, 03:35:05,VALID,913.901,VALID,0,VALID,87.9056,VALID,0,VALID,17.1505,VALID,129,VALID,1.21055,
2011-02-08, 03:36:05,VALID,913.908,VALID,0,VALID,87.6693,VALID,0,VALID,17.1895,VALID,129,VALID,1.09297,
2011-02-08, 03:37:05,VALID,913.932,VALID,0,VALID,87.3491,VALID,0,VALID,17.1895,VALID,129,VALID,1.24297,
2011-02-08, 03:38:05,VALID,913.931,VALID,0,VALID,87.1128,VALID,0,VALID,17.209,VALID,129,VALID,1.13125,
2011-02-08, 03:39:05,VALID,913.921,VALID,0,VALID,87.0975,VALID,0,VALID,17.2285,VALID,129,VALID,1.07344,
2011-02-08, 03:40:05,VALID,913.939,VALID,0,VALID,87.067,VALID,0,VALID,17.2285,VALID,129,VALID,0.951563,
2011-02-08, 03:41:05,VALID,913.952,VALID,0,VALID,87.4253,VALID,0,VALID,17.2285,VALID,129,VALID,0.857031,
2011-02-08, 03:42:05,VALID,913.932,VALID,0,VALID,87.4939,VALID,0,VALID,17.2285,VALID,129,VALID,0.469141,
2011-02-08, 03:43:05,VALID,913.962,VALID,0,VALID,87.6388,VALID,0,VALID,17.2285,VALID,129,VALID,0.721094,
2011-02-08, 03:44:05,VALID,913.957,VALID,0,VALID,88.0505,VALID,0,VALID,17.1895,VALID,129,VALID,0.855469,
2011-02-08, 03:45:05,VALID,913.977,VALID,0,VALID,88.2105,VALID,0,VALID,17.2479,VALID,129,VALID,1.00312,